Date String (YYYY-MM-DD hh:mm:ss) UTC,Instrument flags,Ambient pressure (hPa),Sample flow (lpm),Bypass flow (lpm),Sample temperature (°C),Ambient temperature (°C),ASC tube jacket temperature (°C),LED temperature (°C),Box temperature (°C),Sample RH (%),Span deviation,Mass concentration (μg/m³),Mass concentration (μg/m³),Mass concentration (μg/m³)
DateTimeUTC,F1_M11,P_M11,Q1_M11,Q2_M11,T1_M11,T2_M11,T3_M11,T4_M11,T5_M11,U1_M11,ZSPAN_M11,X0_M11,X2_M11,X1_M11
2023-02-11 02:00:00,,0829.2,5.02,0.00,22.2,20.3,00.0,31.2,23.9,09.5,0000.0,0017.15,0005.17,0003.74
2023-02-11 02:01:00,,0829.2,5.01,0.00,22.2,20.3,00.0,31.2,23.9,09.5,0000.0,0017.14,0005.17,0003.74
2023-02-11 02:02:00,,0829.3,5.02,0.00,22.1,20.2,00.0,31.1,23.8,09.6,0000.0,0016.18,0005.15,0003.74
2023-02-11 02:03:00,,0829.3,4.97,0.00,22.1,20.1,00.0,31.1,23.8,09.8,0000.0,0015.45,0005.14,0003.74
2023-02-11 02:04:00,,0829.2,4.99,0.00,22.1,20.1,00.0,31.1,23.7,09.7,0000.0,0015.27,0005.15,0003.73
2023-02-11 02:05:00,,0829.2,5.01,0.00,22.1,20.3,00.0,31.1,23.8,09.5,0000.0,0015.37,0005.15,0003.74
2023-02-11 02:06:00,,0829.2,4.97,0.00,22.2,21.2,00.0,31.0,24.1,09.4,0000.0,0014.90,0005.16,0003.73
2023-02-11 02:07:00,,0829.2,4.99,0.00,22.3,22.1,00.0,31.0,24.3,09.3,0000.0,0014.80,0005.14,0003.73
2023-02-11 02:08:00,,0829.2,4.97,0.00,22.4,22.5,00.0,31.1,24.4,09.3,0000.0,0016.22,0005.19,0003.74
2023-02-11 02:09:00,,0829.2,5.00,0.00,22.4,22.0,00.0,31.1,24.3,09.2,0000.0,0016.14,0005.18,0003.76
2023-02-11 02:10:00,,0829.3,5.03,0.00,22.4,21.6,00.0,31.1,24.2,09.2,0000.0,0015.94,0005.11,0003.75
2023-02-11 02:11:00,,0829.2,4.96,0.00,22.3,21.3,00.0,31.2,24.1,09.2,0000.0,0016.07,0005.12,0003.74
2023-02-11 02:12:00,,0829.3,5.02,0.00,22.3,21.0,00.0,31.2,24.1,09.2,0000.0,0017.31,0005.21,0003.73
2023-02-11 02:13:00,,0829.2,5.03,0.00,22.3,20.9,00.0,31.2,24.1,09.1,0000.0,0018.14,0005.16,0003.72
2023-02-11 02:14:00,,0829.3,5.03,0.00,22.3,20.7,00.0,31.2,24.0,09.1,0000.0,0019.05,0005.14,0003.72
2023-02-11 02:15:00,,0829.2,5.00,0.00,22.3,20.6,00.0,31.2,24.0,09.2,0000.0,0018.77,0005.11,0003.73
2023-02-11 02:16:00,,0829.3,5.00,0.00,22.2,20.5,00.0,31.2,24.0,09.3,0000.0,0019.13,0005.14,0003.73
2023-02-11 02:17:00,,0829.2,4.99,0.00,22.2,20.5,00.0,31.2,23.9,09.2,0000.0,0018.90,0005.13,0003.74
2023-02-11 02:18:00,,0829.3,5.00,0.00,22.2,20.4,00.0,31.2,23.9,09.1,0000.0,0019.18,0005.12,0003.75
2023-02-11 02:19:00,,0829.2,4.99,0.00,22.2,20.3,00.0,31.2,23.9,09.3,0000.0,0018.85,0005.16,0003.75
2023-02-11 02:20:00,,0829.2,5.00,0.00,22.1,20.2,00.0,31.1,23.8,09.5,0000.0,0019.77,0005.16,0003.75
2023-02-11 02:21:00,,0829.3,5.01,0.00,22.1,20.1,00.0,31.1,23.7,09.5,0000.0,0020.98,0005.15,0003.75
2023-02-11 02:22:00,,0829.3,5.00,0.00,22.1,20.2,00.0,31.1,23.7,09.4,0000.0,0021.28,0005.13,0003.75
2023-02-11 02:23:00,,0829.3,5.01,0.00,22.0,20.2,00.0,31.1,23.7,09.4,0000.0,0019.92,0005.09,0003.76
2023-02-11 02:24:00,,0829.3,5.01,0.00,22.0,20.1,00.0,31.1,23.7,09.4,0000.0,0020.60,0005.16,0003.76
2023-02-11 02:25:00,,0829.2,4.97,0.00,22.0,20.1,00.0,31.0,23.7,09.5,0000.0,0020.59,0005.19,0003.75
2023-02-11 02:26:00,,0829.3,5.00,0.00,22.0,20.1,00.0,31.0,23.7,09.5,0000.0,0020.39,0005.21,0003.74
2023-02-11 02:27:00,,0829.2,4.99,0.00,22.0,20.1,00.0,31.0,23.7,09.4,0000.0,0019.54,0005.19,0003.73
2023-02-11 02:28:00,,0829.2,4.99,0.00,21.9,20.0,00.0,31.0,23.6,09.5,0000.0,0019.42,0005.22,0003.72
2023-02-11 02:29:00,,0829.2,5.01,0.00,21.9,20.4,00.0,30.9,23.7,09.5,0000.0,0019.83,0005.23,0003.71
2023-02-11 02:30:00,,0829.3,5.00,0.00,22.0,21.5,00.0,30.9,24.0,09.4,0000.0,0018.99,0005.19,0003.70
2023-02-11 02:31:00,,0829.3,4.97,0.00,22.2,22.4,00.0,30.9,24.2,09.3,0000.0,0018.30,0005.14,0003.70
2023-02-11 02:32:00,,0829.2,4.98,0.00,22.2,22.3,00.0,31.0,24.2,09.2,0000.0,0017.47,0005.10,0003.69
2023-02-11 02:33:00,,0829.2,4.96,0.00,22.3,21.8,00.0,31.0,24.2,09.2,0000.0,0017.22,0005.15,0003.71
2023-02-11 02:34:00,,0829.2,4.92,0.00,22.2,21.4,00.0,31.1,24.1,09.3,0000.0,0016.69,0005.15,0003.70
2023-02-11 02:35:00,,0829.2,4.93,0.00,22.2,21.1,00.0,31.1,24.0,09.4,0000.0,0015.62,0005.04,0003.69
2023-02-11 02:36:00,,0829.2,5.05,0.00,22.2,21.0,00.0,31.1,24.0,09.5,0000.0,0014.36,0004.95,0003.69
2023-02-11 02:37:00,,0829.2,5.00,0.00,22.2,20.8,00.0,31.1,24.0,09.5,0000.0,0014.20,0004.92,0003.69
2023-02-11 02:38:00,,0829.2,4.99,0.00,22.2,20.7,00.0,31.1,23.9,09.5,0000.0,0014.67,0004.93,0003.71
2023-02-11 02:39:00,,0829.3,5.00,0.00,22.2,20.6,00.0,31.1,23.9,09.5,0000.0,0015.74,0004.93,0003.74
2023-02-11 02:40:00,,0829.3,5.00,0.00,22.1,20.5,00.0,31.1,23.9,09.5,0000.0,0015.65,0004.96,0003.76
2023-02-11 02:41:00,,0829.3,4.98,0.00,22.1,20.5,00.0,31.1,23.8,09.5,0000.0,0015.79,0004.98,0003.79
2023-02-11 02:42:00,,0829.2,4.99,0.00,22.1,20.4,00.0,31.1,23.8,09.5,0000.0,0015.91,0005.03,0003.81
2023-02-11 02:43:00,,0829.2,5.00,0.00,22.1,20.4,00.0,31.1,23.8,09.4,0000.0,0015.38,0005.04,0003.83
2023-02-11 02:44:00,,0829.2,5.01,0.00,22.1,20.4,00.0,31.0,23.8,09.4,0000.0,0014.33,0004.98,0003.82
2023-02-11 02:45:00,,0829.2,5.02,0.00,22.1,20.4,00.0,31.0,23.9,09.4,0000.0,0014.09,0004.95,0003.84
2023-02-11 02:46:00,,0829.3,5.01,0.00,22.1,20.5,00.0,31.0,23.9,09.4,0000.0,0014.56,0005.04,0003.88
2023-02-11 02:47:00,,0829.3,4.99,0.00,22.1,20.4,00.0,31.0,23.9,09.4,0000.0,0015.78,0005.08,0003.91
2023-02-11 02:48:00,,0829.3,5.00,0.00,22.1,20.4,00.0,31.0,23.8,09.4,0000.0,0015.55,0005.09,0003.92
2023-02-11 02:49:00,,0829.3,5.02,0.00,22.0,20.2,00.0,31.0,23.6,09.5,0000.0,0015.41,0005.10,0003.93
2023-02-11 02:50:00,,0829.3,5.01,0.00,22.0,20.3,00.0,31.0,23.7,09.5,0000.0,0014.94,0005.08,0003.93
2023-02-11 02:51:00,,0829.2,4.95,0.00,22.1,21.3,00.0,30.9,24.0,09.5,0000.0,0014.89,0005.05,0003.92
2023-02-11 02:52:00,,0829.2,4.99,0.00,22.2,22.4,00.0,30.9,24.2,09.4,0000.0,0015.77,0005.11,0003.91
2023-02-11 02:53:00,,0829.3,5.01,0.00,22.3,22.6,00.0,31.0,24.3,09.3,0000.0,0016.68,0005.09,0003.91
2023-02-11 02:54:00,,0829.2,5.05,0.00,22.3,22.0,00.0,31.0,24.2,09.3,0000.0,0016.80,0005.14,0003.91
2023-02-11 02:55:00,,0829.2,5.03,0.00,22.3,21.5,00.0,31.1,24.1,09.4,0000.0,0017.85,0005.25,0003.93
2023-02-11 02:56:00,,0829.2,5.02,0.00,22.2,21.1,00.0,31.1,24.0,09.3,0000.0,0018.13,0005.39,0003.94
2023-02-11 02:57:00,,0829.1,4.99,0.00,22.2,20.9,00.0,31.1,24.0,09.3,0000.0,0018.35,0005.36,0003.93
2023-02-11 02:58:00,,0829.1,5.01,0.00,22.2,20.8,00.0,31.1,23.9,09.3,0000.0,0017.36,0005.39,0003.94
2023-02-11 02:59:00,,0829.1,5.00,0.00,22.2,20.6,00.0,31.1,23.8,09.3,0000.0,0017.07,0005.42,0003.95
